Weather History for KCHO - August, 2014

Change the Weather History Date:

Saturday, August 30, 2014

  Actual Average Record
Temperature  
Mean Temperature 76 °F 72 °F  
Max Temperature 84 °F 83 °F - ()
Min Temperature 67 °F 61 °F - ()
Degree Days  
Heating Degree Days 0 0  
Month to date heating degree days 0 0  
Since 1 June heating degree days 2 12  
Since 1 July heating degree days 0 1  
Cooling Degree Days 11 7  
Month to date cooling degree days 219 273  
Year to date cooling degree days 912 903  
Since 1 June cooling degree days 796 817  
Growing Degree Days 24 (Base 50)    
Moisture  
Dew Point 67 °F    
Average Humidity 82    
Maximum Humidity 94    
Minimum Humidity 69    
Precipitation  
Precipitation T in 0.09 in - ()
Month to date precipitation 4.33 3.55  
Year to date precipitation 28.50 28.07  
Sea Level Pressure  
Sea Level Pressure 30.17 in    
Wind  
Wind Speed 4 mph (SSE)    
Max Wind Speed 12 mph    
Max Gust Speed 15 mph    
Visibility 10 miles    
Events      
T = Trace of Precipitation, MM = Missing Value Source: NWS Daily Summary

Daily Weather History Graph

Daily Weather History Graph

Search for Another Location

Airport or City:

Trip Planner

Search our weather history database for the weather conditions in past years. The results will help you decide how hot, cold, wet, or windy it might be!

Date:

Astronomy

Aug. 30, 2014 Rise Set
Actual Time 6:41 AM EDT 7:46 PM EDT
Civil Twilight 6:14 AM EDT 8:13 PM EDT
Nautical Twilight 5:42 AM EDT 8:45 PM EDT
Astronomical Twilight 5:08 AM EDT 9:19 PM EDT
Moon 11:22 AM EDT (8/30) 10:24 PM EDT (8/30)
Length of Visible Light 13h 58m
Length of Day
13h 04m
Waxing Crescent, 23% of the Moon is Illuminated
Aug 30
Waxing Crescent
Sep 2
First Quarter
Sep 8
Full
Sep 15
Last Quarter
Sep 24
New

Hourly Weather History & Observations

Time (EDT) Temp. Heat Index Dew Point Humidity Pressure Visibility Wind Dir Wind Speed Gust Speed Precip Events Conditions
12:53 AM 69.1 °F - 62.1 °F 78% 30.20 in 10.0 mi North 3.5 mph - N/A   Overcast
1:53 AM 68.0 °F - 62.1 °F 81% 30.19 in 10.0 mi North 4.6 mph - N/A   Overcast
2:26 AM 68.0 °F - 62.1 °F 81% 30.21 in 10.0 mi North 3.5 mph - N/A   Overcast
2:53 AM 69.1 °F - 62.1 °F 78% 30.19 in 10.0 mi Calm Calm - N/A   Overcast
4:53 AM 68.0 °F - 62.1 °F 81% 30.19 in 10.0 mi Calm Calm - 0.00 in   Overcast
5:05 AM 68.0 °F - 63.0 °F 84% 30.21 in 10.0 mi NNW 3.5 mph - N/A   Overcast
5:53 AM 68.0 °F - 62.1 °F 81% 30.20 in 10.0 mi Calm Calm - N/A   Overcast
6:53 AM 66.9 °F - 63.0 °F 87% 30.21 in 10.0 mi Calm Calm - N/A   Overcast
7:53 AM 68.0 °F - 63.0 °F 84% 30.22 in 10.0 mi Calm Calm - N/A   Overcast
8:53 AM 70.0 °F - 64.0 °F 81% 30.22 in 10.0 mi Calm Calm - N/A   Overcast
9:53 AM 71.1 °F - 64.9 °F 81% 30.22 in 10.0 mi SSE 4.6 mph - N/A   Overcast
10:53 AM 73.9 °F - 66.9 °F 79% 30.22 in 10.0 mi SSE 4.6 mph - N/A   Overcast
11:50 AM 75.2 °F - 68.0 °F 78% 30.22 in 10.0 mi Variable 5.8 mph - N/A   Overcast
11:53 AM 75.0 °F - 68.0 °F 79% 30.21 in 10.0 mi SW 4.6 mph - N/A   Overcast
12:53 PM 77.0 °F - 70.0 °F 79% 30.19 in 10.0 mi SSE 8.1 mph - N/A   Mostly Cloudy
1:53 PM 79.0 °F - 70.0 °F 74% 30.17 in 10.0 mi SSE 6.9 mph - N/A   Overcast
2:53 PM 80.1 °F 83.2 °F 70.0 °F 71% 30.15 in 10.0 mi Variable 4.6 mph - N/A   Overcast
3:53 PM 82.0 °F 86.7 °F 72.0 °F 71% 30.13 in 10.0 mi SSE 6.9 mph - N/A   Mostly Cloudy
4:53 PM 82.0 °F 86.3 °F 71.1 °F 69% 30.12 in 10.0 mi SSE 8.1 mph - N/A   Scattered Clouds
5:53 PM 82.9 °F 88.0 °F 72.0 °F 69% 30.09 in 10.0 mi SSE 9.2 mph - N/A   Partly Cloudy
6:53 PM 82.0 °F 86.7 °F 72.0 °F 71% 30.09 in 10.0 mi South 5.8 mph - N/A   Scattered Clouds
7:53 PM 79.0 °F - 73.0 °F 82% 30.10 in 10.0 mi South 4.6 mph - N/A   Mostly Cloudy
8:53 PM 75.9 °F - 73.0 °F 91% 30.12 in 10.0 mi Calm Calm - N/A   Clear
9:53 PM 75.0 °F - 73.0 °F 94% 30.12 in 7.0 mi Calm Calm - N/A   Clear
11:53 PM 73.9 °F - 72.0 °F 93% 30.12 in 6.0 mi SSW 3.5 mph - N/A   Partly Cloudy